[[{"header":{"parameterUnit":"m.s-1","parameterCategory":1,"la1":30.2991,"la2":30.254,"lo1":-89.0895,"lo2":-89.0444,"dy":0.0017,"dx":0.0017,"nx":28,"ny":28,"refTime":"2024-08-29T21:00:00:Z","depth":0,"parameterNumber":2,"parameterNumberName":"U-component_of_WINDS"},"data":[0,0,0,0,0,0,0,0,0,0,0,0,0,0,0,0,0,0,0,0,0,0,0,0,0,0,0,0,0,0,0,0,0,0,0,0,0,0,0,0,0,0,0,0,0,0,0,0,0,0,0,0,0,0,0,0,0,0,-2.8538,-2.8538,0,-2.8597,-2.8598,-2.8598,-2.8568,-2.8566,-2.8564,-2.8563,-2.8622,-2.8625,-2.8628,0,0,0,0,0,0,0,0,0,0,0,0,0,-2.8394,-2.8397,-2.8538,-2.8538,-2.8539,-2.8597,-2.8598,-2.8599,-2.8568,-2.8566,-2.8564,-2.8562,-2.8621,-2.8625,-2.8628,0,0,0,0,0,0,0,0,0,0,0,0,0,-2.8455,-2.8398,-2.8538,-2.8531,-2.8531,-2.8597,-2.8598,-2.8599,-2.8568,-2.8566,-2.8564,-2.8561,-2.862,-2.8624,-2.8629,-2.8704,0,0,-2.8643,-2.8645,0,0,0,0,0,0,0,0,-2.8452,-2.8461,-2.8531,-2.8531,-2.8532,-2.8573,-2.8569,-2.8634,-2.8569,-2.8554,-2.8563,-2.856,-2.8607,-2.8613,-2.8629,-2.8707,-2.871,-2.8643,-2.8646,-2.8648,-2.8649,0,0,0,0,0,0,0,-2.8448,-2.8458,-2.8561,-2.8532,-2.8532,-2.8524,-2.853,-2.8581,-2.8593,-2.8555,-2.8553,-2.8561,-2.8607,-2.8625,-2.863,-2.871,-2.8643,-2.8647,-2.865,-2.8652,-2.885,-2.8852,0,0,0,0,0,0,-2.8444,-2.8455,-2.8559,-2.8563,-2.8485,-2.8528,-2.8535,-2.8562,-2.8593,-2.8595,-2.8563,-2.8559,-2.8618,-2.8625,-2.8632,-2.872,-2.8648,-2.8652,-2.8655,-2.8847,-2.885,-2.8853,0,0,0,0,0,0,-2.8441,-2.8454,-2.8557,-2.8508,-2.8521,-2.8533,-2.8563,-2.8564,-2.8582,-2.8598,-2.86,-2.8579,-2.8617,-2.8626,-2.8686,-2.8722,-2.8654,-2.8658,-2.8844,-2.8848,-2.8852,-2.8898,0,0,0,0,0,0,-2.8437,-2.8453,-2.8483,-2.8509,-2.8523,-2.8611,-2.8566,-2.8567,-2.859,-2.8586,-2.8614,-2.8616,-2.8615,-2.8679,-2.869,-2.8727,-2.8662,-2.8841,-2.8846,-2.8851,-2.8894,-2.8903,-2.8911,0,0,0,0,0,-2.8432,-2.8494,-2.8485,-2.8497,-2.8561,-2.8613,-2.8621,-2.8619,-2.8593,-2.8622,-2.8632,-2.8615,-2.8717,-2.8686,-2.8698,-2.8736,-2.8839,-2.8845,-2.885,-2.889,-2.8901,-2.8911,0,0,0,0,0,0,-2.8472,-2.8497,-2.8487,-2.8559,-2.8584,-2.8608,-2.8645,-2.8632,-2.8665,-2.866,-2.8656,-2.8662,-2.8724,-2.8737,-2.8702,-2.8809,-2.8773,-2.8782,-2.8799,-2.881,-2.8819,-2.8814,-2.8666,0,0,0,0,0,-2.8489,-2.8529,-2.855,-2.8611,-2.8624,-2.8632,-2.8655,-2.8651,-2.8677,-2.8687,-2.8702,-2.8726,-2.8763,-2.8788,-2.8823,-2.8896,-2.89,-2.8928,-2.8937,-2.8944,-2.8951,-2.8987,-2.8999,-2.8872,-2.8872,-2.8872,0,0,-2.8524,-2.8543,-2.8569,-2.8619,-2.8638,-2.8679,-2.8641,-2.8687,-2.8717,-2.8694,-2.8751,-2.8762,-2.8789,-2.8855,-2.8885,-2.8867,-2.8987,-2.8951,-2.8957,-2.896,-2.8994,-2.9006,-2.9017,-2.8876,-2.8875,-2.8874,0,0,-2.8609,-2.8629,-2.8681,-2.87,-2.8729,-2.8734,-2.8746,-2.8772,-2.8778,-2.8836,-2.8818,-2.8853,-2.8918,-2.8937,-2.8955,-2.9046,-2.903,-2.9057,-2.9103,-2.9139,-2.9149,-2.9158,-2.9187,-2.9199,-2.9064,-2.9065,-2.9065,0,-2.865,-2.8712,-2.8709,-2.8756,-2.8777,-2.8758,-2.8809,-2.8828,-2.8867,-2.8882,-2.8862,-2.8941,-2.8958,-2.9026,-2.9048,-2.9065,-2.9077,-2.9054,-2.9148,-2.9157,-2.9165,-2.9193,-2.9205,-2.9067,-2.9067,-2.9067,-2.9067,0,-2.8758,-2.8801,-2.884,-2.8877,-2.8903,-2.8952,-2.8955,-2.8982,-2.8976,-2.8982,-2.9039,-2.9059,-2.9096,-2.9113,-2.9108,-2.918,-2.9168,-2.9148,-2.9111,-2.918,-2.9206,-2.9217,-2.9072,-2.9071,-2.907,-2.9069,0,0,-2.887,-2.8905,-2.8919,-2.8934,-2.8964,-2.8996,-2.9043,-2.908,-2.9101,-2.9128,-2.9166,-2.922,-2.9201,-2.9222,-2.9219,-2.925,-2.9317,-2.9226,-2.9226,-2.924,-2.9395,-2.9408,-2.9421,-2.9307,-2.931,-2.9311,-2.9392,0,-2.8956,-2.9038,-2.9036,-2.9112,-2.915,-2.9132,-2.9173,-2.9194,-2.9201,-2.9233,-2.9241,-2.9278,-2.9252,-2.9264,-2.9294,-2.9303,-2.9348,-2.9297,-2.934,-2.9342,-2.9332,-2.9435,-2.945,-2.9525,-2.9402,-2.9404,-2.9406,0,-2.9067,-2.9097,-2.9176,-2.9198,-2.9213,-2.925,-2.9282,-2.9314,-2.9337,-2.934,-2.9362,-2.9353,-2.9399,-2.9362,-2.9423,-2.9389,-2.9406,-2.9413,-2.9416,-2.9418,-2.9377,-2.9438,-2.955,-2.956,-2.9422,-2.9421,-2.942,0,-2.9137,-2.9198,-2.9252,-2.9267,-2.9294,-2.9319,-2.9332,-2.9353,-2.9374,-2.9402,-2.9415,-2.9448,-2.9466,-2.9491,-2.949,-2.9464,-2.9552,-2.9516,-2.9553,-2.9553,-2.9572,-2.957,-2.9685,-2.9587,-2.9586,-2.9586,-2.9586,0,-2.9232,-2.9281,-2.9284,-2.9318,-2.9371,-2.9368,-2.942,-2.943,-2.9448,-2.9482,-2.9469,-2.9501,-2.9499,-2.9531,-2.9531,-2.958,-2.9589,-2.959,-2.9589,-2.9591,-2.959,-2.9601,-2.9595,-2.9589,-2.9589,-2.9588,-2.9587,0,-2.932,-2.9324,-2.9382,-2.9402,-2.9408,-2.9447,-2.9463,-2.9494,-2.9499,-2.9542,-2.9552,-2.956,-2.9596,-2.9598,-2.9641,-2.964,-2.9699,-2.9694,-2.9692,-2.969,-2.9727,-2.9722,-2.9851,-2.9866,-2.976,-2.9761,-2.9762,0,-2.9379,-2.9416,-2.944,-2.9461,-2.9475,-2.951,-2.9531,-2.9529,-2.9552,-2.958,-2.9607,-2.9642,-2.967,-2.9728,-2.9737,-2.9769,-2.9762,-2.9805,-2.9767,-2.9766,-2.976,-2.9757,-2.9759,-2.9812,-2.9813,-2.9814,-2.9815,0,-2.9483,-2.9483,-2.9514,-2.9546,-2.9571,-2.9596,-2.962,-2.9638,-2.9638,-2.9664,-2.9701,-2.9722,-2.9765,-2.9799,-2.9829,-2.984,-2.9827,-2.9827,-2.9837,-2.9838,-2.9834,-2.9834,-2.9709,-2.9824,-2.9823,-2.9822,-2.9822,-2.9821,-2.9557,-2.9587,-2.9608,-2.9643,-2.966,-2.9681,-2.971,-2.9719,-2.9749,-2.9784,-2.978,-2.9821,-2.984,-2.988,-2.9893,-2.9924,-2.9909,-2.9924,-2.9928,-2.9931,-2.9933,-2.983,-2.993,-2.9929,-2.9929,-2.9929,-2.9929,0,-2.9658,-2.967,-2.9702,-2.9734,-2.9761,-2.9746,-2.9771,-2.9793,-2.9829,-2.9849,-2.9876,-2.9917,-2.9949,-2.996,-2.9991,-3.0013,-3.0008,-3.0021,-3.0019,-3.0021,-2.9946,-2.9933,-3.0025,-3.0025,-3.0025,-3.0025,-3.0025,-3.0025,-2.9713,-2.9764,-2.9766,-2.9824,-2.9835,-2.9874,-2.9889,-2.9908,-2.9923,-2.9969,-2.9996,-3.0003,-3.0018,-3.005,-3.0078,-3.0081,-3.0092,-3.0107,-3.0107,-3.0036,-3.0027,-3.0017,-3.0005,-3.011,-3.011,-3.0178,-3.0179,-3.018]},{"header":{"parameterUnit":"m.s-1","parameterCategory":1,"la1":30.2991,"la2":30.254,"lo1":-89.0895,"lo2":-89.0444,"dy":0.0017,"dx":0.0017,"nx":28,"ny":28,"refTime":"2024-08-29T21:00:00:Z","depth":0,"parameterNumber":3,"parameterNumberName":"V-component_of_WINDS"},"data":[0,0,0,0,0,0,0,0,0,0,0,0,0,0,0,0,0,0,0,0,0,0,0,0,0,0,0,0,0,0,0,0,0,0,0,0,0,0,0,0,0,0,0,0,0,0,0,0,0,0,0,0,0,0,0,0,0,0,0.4624,0.4624,0,0.4579,0.4579,0.4578,0.4512,0.4511,0.451,0.4509,0.4461,0.4461,0.4461,0,0,0,0,0,0,0,0,0,0,0,0,0,0.4653,0.4653,0.4624,0.4624,0.4623,0.4579,0.4579,0.4578,0.4512,0.4511,0.4509,0.4508,0.4461,0.4461,0.4461,0,0,0,0,0,0,0,0,0,0,0,0,0,0.4628,0.4653,0.4624,0.4585,0.4581,0.4579,0.4579,0.4578,0.4513,0.4511,0.4509,0.4508,0.4461,0.4461,0.4461,0.4494,0,0,0.446,0.446,0,0,0,0,0,0,0,0,0.4629,0.4627,0.4592,0.4588,0.4583,0.455,0.4571,0.455,0.4513,0.4539,0.4509,0.4507,0.4492,0.4489,0.4484,0.4491,0.4489,0.446,0.446,0.446,0.446,0,0,0,0,0,0,0,0.4631,0.4628,0.4606,0.4591,0.4586,0.457,0.4564,0.4567,0.4525,0.4536,0.4531,0.4527,0.4489,0.4485,0.4483,0.4489,0.446,0.446,0.446,0.4459,0.452,0.4522,0,0,0,0,0,0,0.4639,0.463,0.4608,0.4605,0.4603,0.4571,0.4564,0.4562,0.4525,0.4518,0.4528,0.4524,0.4486,0.4483,0.4481,0.4516,0.446,0.4459,0.4459,0.4518,0.4521,0.4522,0,0,0,0,0,0,0.464,0.4637,0.461,0.4616,0.4611,0.4572,0.457,0.4562,0.4557,0.4519,0.4512,0.4531,0.4485,0.4481,0.4491,0.4514,0.4459,0.4459,0.4516,0.4519,0.4522,0.4588,0,0,0,0,0,0,0.4641,0.4638,0.465,0.4617,0.4611,0.4621,0.4571,0.4562,0.4557,0.4551,0.452,0.4513,0.4483,0.4492,0.4491,0.4512,0.4459,0.4514,0.4518,0.4521,0.4584,0.4593,0.4601,0,0,0,0,0,0.4642,0.467,0.4651,0.4649,0.4626,0.4622,0.4619,0.4584,0.4559,0.4571,0.4547,0.4514,0.4512,0.4493,0.4492,0.4514,0.4512,0.4517,0.452,0.458,0.4591,0.46,0,0,0,0,0,0,0.4707,0.4665,0.4643,0.4662,0.4646,0.4611,0.4625,0.4597,0.4587,0.4582,0.4539,0.4532,0.4548,0.4531,0.4512,0.4543,0.4507,0.4511,0.4553,0.4563,0.4572,0.4575,0.4459,0,0,0,0,0,0.4723,0.4724,0.4688,0.4708,0.4701,0.4665,0.4662,0.4637,0.4618,0.4611,0.4587,0.4571,0.4566,0.4564,0.4557,0.4581,0.4574,0.4596,0.4604,0.4611,0.4615,0.4626,0.4636,0.4536,0.4536,0.4536,0,0,0.4757,0.4735,0.4738,0.4721,0.4705,0.4707,0.4659,0.4663,0.4664,0.4611,0.4619,0.4602,0.458,0.4597,0.4603,0.4584,0.4641,0.4616,0.4622,0.4622,0.4631,0.4641,0.4649,0.4538,0.4538,0.4537,0,0,0.482,0.4803,0.4818,0.4804,0.4782,0.4757,0.4761,0.4731,0.4717,0.4724,0.4685,0.4685,0.4678,0.4664,0.4657,0.4715,0.4685,0.4715,0.4758,0.477,0.4778,0.4784,0.4805,0.4813,0.4719,0.4719,0.4719,0,0.4865,0.4866,0.4829,0.4836,0.4829,0.4782,0.4797,0.4785,0.4762,0.4758,0.4737,0.4728,0.471,0.4723,0.4738,0.4733,0.4736,0.4717,0.478,0.4786,0.4792,0.4811,0.4819,0.4722,0.4722,0.4722,0.4721,0,0.4922,0.4924,0.4939,0.4918,0.4913,0.4924,0.4888,0.4888,0.4863,0.4841,0.4849,0.4826,0.4815,0.4816,0.4792,0.4826,0.4815,0.4788,0.475,0.4806,0.4823,0.483,0.4728,0.4726,0.4725,0.4724,0,0,0.5023,0.4983,0.4989,0.4979,0.4952,0.4952,0.4961,0.495,0.495,0.4936,0.4942,0.4938,0.4912,0.4904,0.4877,0.4888,0.4936,0.4859,0.4858,0.4874,0.4972,0.4992,0.5001,0.4916,0.4917,0.4918,0.4973,0,0.508,0.5093,0.506,0.508,0.5081,0.5038,0.5045,0.5029,0.5009,0.5007,0.4984,0.4982,0.4949,0.4943,0.4952,0.4928,0.4955,0.4924,0.492,0.4921,0.4926,0.501,0.5031,0.5084,0.498,0.4981,0.4982,0,0.5148,0.5138,0.5159,0.513,0.5129,0.5137,0.5124,0.5123,0.5104,0.5089,0.508,0.5049,0.5056,0.5021,0.5029,0.5009,0.5005,0.4994,0.4995,0.4992,0.4954,0.5009,0.51,0.5108,0.4992,0.4991,0.499,0,0.5219,0.5211,0.5222,0.5215,0.5182,0.5189,0.5175,0.5155,0.515,0.514,0.5136,0.5127,0.5121,0.5114,0.5082,0.5059,0.5094,0.5056,0.508,0.5081,0.5089,0.5089,0.518,0.5088,0.5088,0.5088,0.5088,0,0.5285,0.5299,0.5253,0.526,0.5275,0.5238,0.5254,0.5236,0.5218,0.5221,0.5182,0.5186,0.5144,0.5142,0.5117,0.5127,0.5125,0.5113,0.5106,0.5116,0.5117,0.5112,0.5108,0.509,0.509,0.5089,0.5089,0,0.5366,0.5336,0.5346,0.5315,0.5307,0.532,0.5293,0.5298,0.5276,0.528,0.5278,0.5244,0.524,0.5208,0.5197,0.518,0.52,0.5186,0.5206,0.5201,0.5228,0.5226,0.5319,0.5329,0.5231,0.5232,0.5233,0,0.541,0.542,0.5391,0.539,0.5379,0.5378,0.5373,0.5337,0.5334,0.5314,0.5322,0.5315,0.5308,0.5304,0.5278,0.5269,0.5255,0.5288,0.5253,0.5263,0.5254,0.5254,0.5255,0.5295,0.5296,0.5297,0.5298,0,0.5491,0.5476,0.5471,0.5462,0.5458,0.5449,0.5437,0.5438,0.5398,0.5397,0.5393,0.5388,0.5377,0.5371,0.5358,0.5344,0.5315,0.531,0.5315,0.5325,0.5336,0.533,0.5226,0.5307,0.5306,0.5306,0.5305,0.5305,0.5555,0.5562,0.5542,0.5538,0.5526,0.5516,0.5519,0.5498,0.5494,0.5483,0.5462,0.5462,0.5443,0.5422,0.5411,0.541,0.5392,0.54,0.5402,0.5404,0.5409,0.5337,0.5407,0.5407,0.5407,0.5406,0.5406,0,0.5633,0.5619,0.5616,0.5601,0.5598,0.5571,0.5557,0.5556,0.5556,0.5542,0.5536,0.5531,0.5526,0.5499,0.549,0.5495,0.5481,0.5493,0.5492,0.549,0.5425,0.5422,0.5505,0.5505,0.5505,0.5505,0.5505,0.5505,0.5674,0.5684,0.5667,0.5671,0.5656,0.5656,0.565,0.564,0.5628,0.5626,0.5621,0.5604,0.5584,0.5574,0.5568,0.556,0.5558,0.5575,0.5563,0.5504,0.5494,0.5485,0.5481,0.5575,0.5575,0.5627,0.5628,0.5628]}]]